Saltillo, Mexico

12:40 PM CDT on April 19, 2018 (GMT -0500)
Plan De Guadalupe International

Weather History for MMIO - November, 2012

Change the Weather History Date:

Sunday, November 4, 2012

  Actual Average Record
Temperature  
Mean Temperature 60 °F -  
Max Temperature 73 °F 71 °F 88 °F (2017)
Min Temperature 47 °F 52 °F 39 °F (2010)
Degree Days  
Heating Degree Days 5    
Growing Degree Days 10 (Base 50)    
Moisture  
Dew Point 51 °F    
Average Humidity 63    
Maximum Humidity 95    
Minimum Humidity 39    
Precipitation  
Precipitation 0.00 in - - ()
Sea Level Pressure  
Sea Level Pressure 30.15 in    
Wind  
Wind Speed 5 mph ()    
Max Wind Speed 14 mph    
Max Gust Speed -    
Visibility 5.5 miles    
Events      
Averages and records for this station are not official NWS values.
T = Trace of Precipitation, MM = Missing Value Source: Averaged Metar Reports

Daily Weather History Graph

Daily Weather History Graph

Search for Another Location

Airport or City:

Astronomy

Nov. 04, 2012 Rise Set
Actual Time 6:54 AM CST 6:00 PM CST
Civil Twilight 6:30 AM CST 6:24 PM CST
Nautical Twilight 6:03 AM CST 6:51 PM CST
Astronomical Twilight 5:36 AM CST 7:18 PM CST
Moon 10:45 PM CST (11/4) 11:32 AM CST (11/4)
Length of Visible Light 11h 54m
Length of Day
11h 06m
Waning Gibbous, 72% of the Moon is Illuminated
Nov 4
Waning Gibbous
Nov 6
Last Quarter
Nov 13
New
Nov 20
First Quarter
Nov 28
Full

Hourly Weather History & Observations

Time (CST) Temp. Dew Point Humidity Pressure Visibility Wind Dir Wind Speed Gust Speed Precip Events Conditions
2:30 AM 50 °F 41 °F 62% 29.97 in 3 mi South 4.5 mph - -   Haze
5:30 AM 49 °F 43 °F 72% 30.06 in 3 mi SSE 4.5 mph - -   Haze
6:40 AM 59.0 °F 50.0 °F 72% 30.23 in 6.0 mi Calm Calm - N/A   Mostly Cloudy
7:40 AM 55.4 °F 50.0 °F 82% 30.24 in 6.0 mi South 5.8 mph - N/A   Mostly Cloudy
8:30 AM 55 °F 50 °F 76% 30.14 in 3 mi ENE 6.7 mph - -   Haze
8:40 AM 60.8 °F 48.2 °F 63% 30.25 in 6.0 mi Calm Calm - N/A   Overcast
9:40 AM 68.0 °F 53.6 °F 60% 30.26 in 6.0 mi Calm Calm - N/A   Overcast
10:40 AM 69.8 °F 57.2 °F 64% 30.25 in 6.0 mi North 9.2 mph - N/A   Overcast
11:30 AM 65 °F 49 °F 45% 30.10 in 4 mi ENE 8.9 mph - -   Haze
11:40 AM 71.6 °F 55.4 °F 57% 30.22 in 6.0 mi North 9.2 mph - N/A   Mostly Cloudy
12:40 PM 77.0 °F 60.8 °F 57% 30.20 in 8.0 mi Calm Calm - N/A   Mostly Cloudy
1:40 PM 75.2 °F 53.6 °F 47% 30.18 in 8.0 mi Calm Calm - N/A   Mostly Cloudy
2:40 PM 73.4 °F 53.6 °F 50% 30.14 in 8.0 mi NNE 13.8 mph - N/A   Mostly Cloudy
3:00 PM 68 °F 49 °F 39% 29.97 in 6 mi ENE 13.4 mph - -   Clear
3:40 PM 71.6 °F 51.8 °F 50% 30.13 in 6.0 mi NNE 13.8 mph - N/A   Mostly Cloudy
4:40 PM 69.8 °F 53.6 °F 56% 30.14 in 6.0 mi NNE 13.8 mph - N/A   Mostly Cloudy
5:30 PM 62 °F 52 °F 61% 29.96 in 6 mi ENE 8.9 mph - -   Haze
5:40 PM 66.2 °F 53.6 °F 64% 30.15 in 6.0 mi NNE 13.8 mph - N/A   Mostly Cloudy
6:40 PM 64.4 °F 50.0 °F 59% 30.18 in 6.0 mi NNE 6.9 mph - N/A   Mostly Cloudy
7:40 PM 64.4 °F 50.0 °F 59% 30.20 in 6.0 mi North 6.9 mph - N/A   Scattered Clouds
8:30 PM 56 °F 50 °F 73% 29.99 in 2 mi ENE 2.2 mph - -   Haze
8:40 PM 62.6 °F 51.8 °F 68% 30.23 in 6.0 mi NNE 6.9 mph - N/A   Clear
9:40 PM 62.6 °F 51.8 °F 68% 30.23 in 6.0 mi North 6.9 mph - N/A   Clear
10:40 PM 62.6 °F 51.8 °F 68% 30.23 in 6.0 mi North 6.9 mph - N/A   Clear
11:30 PM 49 °F 48 °F 95% 30.03 in 2 mi South 4.5 mph - -   Haze
11:40 PM 59.0 °F 50.0 °F 72% 30.24 in 6.0 mi Calm Calm - N/A   Scattered Clouds